Simultaneous Nadir Overpasses (SNOs) Predictions

Prediction of SNOs between LANDSAT-8 and METOP-B Satellite Orbit:

Table of predicted SNOs for the next 14.0 days since TLE Epoch: 2/2/2019
Index Date (LANDSAT-8) Time (LANDSAT-8) Lat,Lon (LANDSAT-8) SZA (LANDSAT-8 ) Date (METOP-B) Time (METOP-B) Lat,Lon (METOP-B) SZA (METOP-B ) Distance(km) Time Diff (sec)
1 02/02/2019 13:48:13 -81.08,-167.95 80.56 02/02/2019 13:47:31 -81.08,-168.10 80.59 2.46 42
2 02/02/2019 14:37:38 81.11, 0.10 99.49 02/02/2019 14:38:09 81.11, 0.11 99.51 0.32 31
3 02/05/2019 09:22:27 -81.08,-101.51 81.40 02/05/2019 09:21:54 -81.09,-101.54 81.41 0.69 33
4 02/05/2019 10:11:52 81.11, 66.52 98.65 02/05/2019 10:12:32 81.12, 66.65 98.69 2.37 40
5 02/08/2019 04:56:42 -81.09, -35.01 82.26 02/08/2019 04:56:18 -81.09, -35.00 82.26 0.60 24
6 02/08/2019 05:46:07 81.11, 132.99 97.79 02/08/2019 05:46:57 81.11, 132.80 97.79 3.30 50
7 02/11/2019 00:30:57 -81.09, 31.52 83.15 02/11/2019 00:30:42 -81.10, 31.53 83.15 0.26 15
8 02/11/2019 01:20:22 81.12,-160.48 96.90 02/11/2019 01:21:20 81.12,-160.30 96.94 3.25 58
9 02/13/2019 20:05:11 -81.10, 98.11 84.06 02/13/2019 20:05:05 -81.10, 98.04 84.07 1.18 6




NCC Satellite Simultaneous Nadir Overpasses (SNOs) Prediction Service
